CEB566 RPVM-RPLL

Flight info

Callsign CEB566
Flight time N/A
Altitude 34000
Route MULOP1Q MULOP W11 CONDE CONDE7R
Aircraft A20N/M-SDE2E3FGHIJ1RWXY/LB1

Departure

Time N/A
Airport Mactan Cebu International Airport (RPVM)

Arrival

Time 2026-04-30 11:16
Airport Ninoy Aquino International Airport (RPLL)
Time Latitude Longitude Altitude Speed Heading
2026-04-30 10:41 12.17797 122.68496 33873 ft 478 kts 325°
2026-04-30 10:42 12.23342 122.64589 33867 ft 478 kts 325°
2026-04-30 10:42 12.28832 122.60706 33865 ft 478 kts 325°
2026-04-30 10:43 12.34346 122.56804 33871 ft 478 kts 325°
2026-04-30 10:43 12.39801 122.52956 33874 ft 478 kts 325°
2026-04-30 10:44 12.45322 122.49073 33876 ft 478 kts 325°
2026-04-30 10:44 12.50782 122.45219 33882 ft 478 kts 325°
2026-04-30 10:45 12.56258 122.41346 33887 ft 477 kts 325°
2026-04-30 10:45 12.61724 122.37476 33888 ft 477 kts 324°
2026-04-30 10:46 12.67218 122.33578 33886 ft 477 kts 324°
2026-04-30 10:46 12.72693 122.29667 33885 ft 477 kts 324°
2026-04-30 10:47 12.78186 122.25755 33883 ft 477 kts 324°
2026-04-30 10:47 12.80914 122.23816 33494 ft 478 kts 324°
2026-04-30 10:47 12.83663 122.21864 32834 ft 476 kts 324°
2026-04-30 10:48 12.86406 122.19916 32097 ft 474 kts 324°
2026-04-30 10:48 12.89142 122.17973 31333 ft 474 kts 324°
2026-04-30 10:48 12.91844 122.16053 30525 ft 475 kts 324°
2026-04-30 10:48 12.94564 122.14120 29684 ft 477 kts 324°
2026-04-30 10:49 12.97298 122.12176 29041 ft 473 kts 324°
2026-04-30 10:49 12.99974 122.10274 28553 ft 466 kts 324°
2026-04-30 10:49 13.02655 122.08368 28051 ft 460 kts 324°
2026-04-30 10:49 13.05252 122.06520 27558 ft 455 kts 324°
2026-04-30 10:50 13.07848 122.04672 27055 ft 451 kts 324°
2026-04-30 10:50 13.10444 122.02825 26551 ft 446 kts 324°
2026-04-30 10:50 13.13014 122.01002 26042 ft 442 kts 325°
2026-04-30 10:50 13.15585 121.99182 25539 ft 438 kts 325°
2026-04-30 10:51 13.18081 121.97412 25030 ft 434 kts 325°
2026-04-30 10:51 13.20585 121.95631 24523 ft 431 kts 325°
2026-04-30 10:51 13.23042 121.93882 24021 ft 428 kts 325°
2026-04-30 10:51 13.25489 121.92139 23536 ft 424 kts 325°
2026-04-30 10:52 13.27918 121.90407 23044 ft 421 kts 326°
2026-04-30 10:52 13.30324 121.88692 22546 ft 418 kts 326°
2026-04-30 10:52 13.32684 121.87007 22053 ft 415 kts 326°
2026-04-30 10:52 13.35057 121.85315 21553 ft 413 kts 326°
2026-04-30 10:53 13.37408 121.83637 21047 ft 411 kts 326°
2026-04-30 10:53 13.39757 121.81961 20545 ft 409 kts 326°
2026-04-30 10:53 13.42109 121.80281 20037 ft 407 kts 326°
2026-04-30 10:53 13.44415 121.78632 19532 ft 405 kts 326°
2026-04-30 10:54 13.46754 121.76961 19013 ft 403 kts 326°
2026-04-30 10:54 13.49035 121.75330 18517 ft 401 kts 326°
2026-04-30 10:54 13.51324 121.73693 18016 ft 399 kts 326°
2026-04-30 10:54 13.53604 121.72062 17517 ft 396 kts 326°
2026-04-30 10:55 13.55861 121.70447 17020 ft 393 kts 327°
2026-04-30 10:55 13.58109 121.68838 16526 ft 391 kts 327°
2026-04-30 10:55 13.60333 121.67243 16291 ft 379 kts 327°
2026-04-30 10:55 13.62471 121.65710 16155 ft 365 kts 327°
2026-04-30 10:56 13.64511 121.64249 16039 ft 351 kts 327°
2026-04-30 10:56 13.66485 121.62834 15936 ft 338 kts 327°
2026-04-30 10:56 13.68370 121.61443 15905 ft 331 kts 324°
2026-04-30 10:56 13.70147 121.59936 15909 ft 333 kts 320°
2026-04-30 10:57 13.71916 121.58331 15911 ft 334 kts 320°
2026-04-30 10:57 13.73659 121.56734 15914 ft 334 kts 320°
2026-04-30 10:57 13.75393 121.55140 15916 ft 334 kts 320°
2026-04-30 10:57 13.77156 121.53523 15921 ft 334 kts 320°
2026-04-30 10:58 13.78885 121.51939 15926 ft 334 kts 320°
2026-04-30 10:58 13.80648 121.50324 15922 ft 334 kts 320°
2026-04-30 10:58 13.82377 121.48740 15908 ft 334 kts 320°
2026-04-30 10:58 13.84130 121.47133 15626 ft 335 kts 320°
2026-04-30 10:59 13.85885 121.45525 15240 ft 333 kts 320°
2026-04-30 10:59 13.87627 121.43927 14861 ft 331 kts 320°
2026-04-30 10:59 13.89350 121.42348 14487 ft 329 kts 320°
2026-04-30 10:59 13.91043 121.40795 14132 ft 326 kts 320°
2026-04-30 11:00 13.92746 121.39236 13772 ft 324 kts 321°
2026-04-30 11:00 13.94425 121.37714 13421 ft 321 kts 320°
2026-04-30 11:00 13.96104 121.36170 13053 ft 319 kts 319°
2026-04-30 11:00 13.97753 121.34641 12716 ft 317 kts 319°
2026-04-30 11:01 13.99406 121.33100 12370 ft 314 kts 319°
2026-04-30 11:01 14.01016 121.31605 12038 ft 311 kts 319°
2026-04-30 11:01 14.02630 121.30113 11692 ft 309 kts 320°
2026-04-30 11:01 14.04169 121.28536 11334 ft 309 kts 310°
2026-04-30 11:02 14.05307 121.26671 10988 ft 309 kts 296°
2026-04-30 11:02 14.06130 121.24606 10644 ft 307 kts 291°
2026-04-30 11:02 14.06878 121.22547 10307 ft 305 kts 291°
2026-04-30 11:02 14.07625 121.20477 9964 ft 303 kts 291°
2026-04-30 11:03 14.08359 121.18463 9630 ft 301 kts 291°
2026-04-30 11:03 14.09108 121.16432 9304 ft 299 kts 292°
2026-04-30 11:03 14.09847 121.14442 8987 ft 296 kts 292°
2026-04-30 11:04 14.11343 121.10483 8339 ft 292 kts 292°
2026-04-30 11:04 14.12083 121.08529 8024 ft 290 kts 292°
2026-04-30 11:04 14.12810 121.06591 7708 ft 288 kts 292°
2026-04-30 11:04 14.13526 121.04681 7394 ft 286 kts 292°
2026-04-30 11:05 14.14245 121.02754 7078 ft 284 kts 292°
2026-04-30 11:05 14.14949 121.00869 6771 ft 282 kts 292°
2026-04-30 11:05 14.15658 120.98965 6457 ft 280 kts 292°
2026-04-30 11:05 14.16352 120.97102 6182 ft 275 kts 292°
2026-04-30 11:06 14.17088 120.95310 6092 ft 261 kts 304°
2026-04-30 11:06 14.18254 120.93983 5920 ft 248 kts 327°
2026-04-30 11:06 14.19721 120.93075 5721 ft 240 kts 333°
2026-04-30 11:06 14.21189 120.92242 5505 ft 235 kts 333°
2026-04-30 11:07 14.22598 120.91438 5280 ft 231 kts 333°
2026-04-30 11:07 14.24001 120.90624 5120 ft 228 kts 333°
2026-04-30 11:07 14.25391 120.89793 5062 ft 229 kts 327°
2026-04-30 11:07 14.26431 120.88546 5038 ft 232 kts 297°
2026-04-30 11:08 14.27097 120.86991 5041 ft 235 kts 297°
2026-04-30 11:08 14.27793 120.85451 5027 ft 231 kts 297°
2026-04-30 11:08 14.28459 120.83996 5012 ft 217 kts 297°
2026-04-30 11:08 14.29077 120.82629 5092 ft 204 kts 298°
2026-04-30 11:09 14.29671 120.81303 5051 ft 203 kts 297°
2026-04-30 11:09 14.30251 120.80003 4896 ft 198 kts 297°
2026-04-30 11:09 14.31032 120.78829 4527 ft 196 kts 319°
2026-04-30 11:09 14.32170 120.78097 4163 ft 192 kts 348°
2026-04-30 11:10 14.33456 120.78191 3821 ft 186 kts 20°
2026-04-30 11:10 14.34657 120.78719 3491 ft 186 kts 26°
2026-04-30 11:10 14.35826 120.79308 3167 ft 185 kts 27°
2026-04-30 11:10 14.36980 120.79898 3020 ft 184 kts 27°
2026-04-30 11:11 14.38133 120.80517 3020 ft 185 kts 33°
2026-04-30 11:11 14.39120 120.81368 3013 ft 184 kts 47°
2026-04-30 11:11 14.39923 120.82416 3012 ft 185 kts 56°
2026-04-30 11:11 14.40629 120.83551 3007 ft 184 kts 59°
2026-04-30 11:12 14.41291 120.84700 3003 ft 184 kts 60°
2026-04-30 11:12 14.41924 120.85834 2974 ft 179 kts 60°
2026-04-30 11:12 14.42538 120.86943 2801 ft 171 kts 60°
2026-04-30 11:12 14.43123 120.88001 2577 ft 166 kts 60°
2026-04-30 11:13 14.43685 120.89017 2362 ft 160 kts 60°
2026-04-30 11:13 14.44223 120.89989 2141 ft 150 kts 60°
2026-04-30 11:13 14.44741 120.90925 1965 ft 149 kts 60°
2026-04-30 11:13 14.45254 120.91849 1786 ft 148 kts 60°
2026-04-30 11:14 14.45763 120.92767 1616 ft 142 kts 61°
2026-04-30 11:14 14.46256 120.93655 1439 ft 139 kts 61°
2026-04-30 11:14 14.46732 120.94512 1255 ft 138 kts 62°
2026-04-30 11:14 14.47213 120.95380 1074 ft 137 kts 61°
2026-04-30 11:15 14.47686 120.96233 900 ft 137 kts 61°
2026-04-30 11:15 14.48160 120.97085 721 ft 136 kts 63°
2026-04-30 11:15 14.48629 120.97935 560 ft 136 kts 63°
2026-04-30 11:15 14.49102 120.98781 388 ft 137 kts 63°
2026-04-30 11:16 14.49578 120.99630 228 ft 136 kts 63°
2026-04-30 11:16 14.50044 121.00478 88 ft 133 kts 62°
2026-04-30 11:16 14.50438 121.01190 82 ft 90 kts 60°
2026-04-30 11:16 14.50662 121.01592 82 ft 38 kts 58°
2026-04-30 11:17 14.50780 121.01729 82 ft 15 kts 39°
2026-04-30 11:17 14.50853 121.01785 82 ft 8 kts 26°
2026-04-30 11:17 14.50908 121.01769 82 ft 9 kts 317°
2026-04-30 11:17 14.50959 121.01717 82 ft 10 kts 314°
2026-04-30 11:18 14.51015 121.01659 82 ft 12 kts 315°
2026-04-30 11:18 14.51144 121.01524 82 ft 14 kts 314°
2026-04-30 11:18 14.51216 121.01450 82 ft 14 kts 315°
2026-04-30 11:19 14.51254 121.01427 82 ft 5 kts 353°
2026-04-30 11:19 14.51294 121.01445 82 ft 7 kts 49°
2026-04-30 11:19 14.51329 121.01489 82 ft 8 kts 51°
2026-04-30 11:19 14.51373 121.01539 82 ft 10 kts 46°
2026-04-30 11:20 14.51427 121.01590 82 ft 11 kts 33°
2026-04-30 11:20 14.51468 121.01618 82 ft 6 kts 40°
2026-04-30 11:20 14.51503 121.01653 82 ft 7 kts 44°
2026-04-30 11:20 14.51543 121.01694 82 ft 9 kts 45°
2026-04-30 11:21 14.51587 121.01739 82 ft 10 kts 45°
2026-04-30 11:21 14.51637 121.01781 82 ft 4 kts 21°
2026-04-30 11:21 14.51662 121.01787 82 ft 4 kts
2026-04-30 11:21 14.51694 121.01777 82 ft 5 kts 320°
2026-04-30 11:22 14.51727 121.01745 82 ft 7 kts 315°
2026-04-30 11:22 14.51749 121.01717 82 ft 3 kts 282°
2026-04-30 11:22 14.51734 121.01692 82 ft 3 kts 226°
2026-04-30 11:22 14.51724 121.01681 82 ft 2 kts 226°
2026-04-30 11:23 14.51714 121.01671 82 ft 2 kts 225°
2026-04-30 11:23 14.51703 121.01659 82 ft 2 kts 225°
2026-04-30 11:23 14.51700 121.01656 82 ft 0 kts 226°